Location: Mattaponi
(37.5353°N, 76.7712°W)
Time: 15:33:48
(UTC+00:00)

ISS - Visible Passes

Search period start: 19 April 2024 00:00
Search period end: 29 April 2024 00:00
Orbit: 412 x 418 km, 51.6° (Epoch: 19 April)

Date Brightness Start Highest point End Pass type
(mag) Time Alt. Az. Time Alt. Az. Time Alt. Az.
19 Apr -1.1 08:57:08 10° SSE 08:59:04 15° SE 09:01:00 10° E visible
20 Apr -3.8 09:43:25 11° SW 09:46:39 88° SE 09:49:59 10° NE visible
21 Apr -3.0 08:56:42 30° S 08:57:51 44° SE 09:01:03 10° ENE visible
22 Apr -1.6 08:09:51 22° ESE 08:09:51 22° ESE 08:11:48 10° ENE visible
22 Apr -2.6 09:42:43 11° W 09:45:40 32° NNW 09:48:43 10° NNE visible
23 Apr -3.5 08:55:44 39° W 08:56:38 56° NW 08:59:56 10° NE visible
24 Apr -2.6 08:08:38 42° ENE 08:08:38 42° ENE 08:10:59 10° NE visible
24 Apr -1.5 09:42:29 10° WNW 09:44:42 16° NNW 09:46:53 10° NNE visible
25 Apr -0.5 07:21:26 12° ENE 07:21:26 12° ENE 07:21:47 10° ENE visible
25 Apr -2.0 08:54:17 19° WNW 08:55:27 23° NNW 08:58:12 10° NNE visible
26 Apr -2.2 08:06:59 31° N 08:06:59 31° N 08:09:21 10° NE visible
26 Apr -0.9 09:43:31 10° NNW 09:43:41 10° NNW 09:43:52 10° NNW visible
27 Apr -0.7 07:19:35 16° NE 07:19:35 16° NE 07:20:20 10° NE visible
27 Apr -1.2 08:52:36 10° NW 08:54:15 13° NNW 08:55:53 10° N visible
28 Apr -1.4 08:04:57 18° NNW 08:04:57 18° NNW 08:07:10 10° NNE visible
